PROMETHEUS 2-1

Last updated on Sat Jul 05 2025 00:03:43 GMT+0000 (Coordinated Universal Time)

1 41854U 16067G 25185.53470132 .00044142 00000+0 77540-3 0 9998 2 41854 98.0747 41.8365 0007327 151.2548 208.9107 15.50365269474274
UTC large
Height (km)
Speed (km/s)
/
Latitude / Longitude
Inclination (degrees)
Orbital Period (minutes)
Azimuth
Elevation
Range (km)
Doppler Factor

Next 0 passes for location: London (51.5072 / 0.1276)

Sorry there are no passes over London.